Regional Weather Roundup
Issued by NWS

Home | Current Version | Previous Version | Graphics & Text | Print | Product List | Glossary On
Versions: 1 2 3 4 5 6 7 8 9 10 11 12 13 14 15 16 17 18 19 20 21 22 23 24 25 26 27 28 29 30 31 32 33 34 35 36 37 38 39 40 41 42 43 44 45 46 47 48 49 50
000
ASUS43 KLMK 310610
RWRKY
KENTUCKY REGIONAL WEATHER ROUNDUP
NATIONAL WEATHER SERVICE LOUISVILLE KY
200 AM EDT FRI JUL 31 2015

NOTE "FAIR" INDICATES FEW OR NO CLOUDS BELOW 12,000 FEET
WITH NO SIGNIFICANT WEATHER AND/OR OBSTRUCTIONS TO VISIBILITY.

KYZ001>023-026-027-061>063-070>075-310700-
WESTERN AND SOUTH CENTRAL KENTUCKY

CITY           SKY/WX    TMP DP  RH WIND       PRES   REMARKS
PADUCAH        CLEAR     67  64  90 CALM      30.09F
HENDERSON      CLEAR     66  63  88 CALM      30.08S
OWENSBORO      CLEAR     71  67  87 CALM      30.09S
HOPKINSVILLE   MOCLDY    70  64  79 NW2       30.08F
BOWLING GREEN  CLEAR     69  63  81 CALM      30.09F
GLASGOW        PTCLDY   N/A N/A N/A CALM      30.09F
$$

KYZ024-025-028>034-038-045-046-053-310700-
NORTH CENTRAL KENTUCKY

CITY           SKY/WX    TMP DP  RH WIND       PRES   REMARKS
LOUISVILLE/SDF PTCLDY    73  62  68 CALM      30.07F
LOUISVILLE/LOU PTCLDY    70  62  76 CALM      30.08F
FORT KNOX      CLEAR     64  61  88 CALM      30.07F
$$

KYZ035>037-039>044-047>052-055>060-089>105-310700-
NORTHEAST KENTUCKY

CITY           SKY/WX    TMP DP  RH WIND       PRES   REMARKS
LEXINGTON      CLEAR     67  61  81 CALM      30.09F
COVINGTON      CLEAR     71  62  73 CALM      30.07F
FRANKFORT      CLEAR     64  62  93 CALM      30.07F
$$

KYZ054-064>069-076>088-106>120-310700-
SOUTHEAST KENTUCKY

CITY           SKY/WX    TMP DP  RH WIND       PRES   REMARKS
JACKSON        CLEAR     70  57  63 NW5       30.09F
LONDON         CLEAR     67  59  75 CALM      30.09F
SOMERSET       CLEAR     61  61 100 CALM      30.10F
MIDDLESBORO    PTCLDY    64  64  97 CALM      30.10S
MONTICELLO     CLEAR     61  61 100 CALM      30.12F
$$




USA.gov is the U.S. government's official web portal to all federal, state and local government web resources and services.